DO5RS-5 Weather Reports


time (UTC)temp
C
wind
direction
speed
KPH
gust
KPH
rain 1hr
cm
rain 24hr
cm
rain mn
cm
humidity
%
barometer
mb
20260510191905 18 0.0 0.0 0.00 0.00 0.00 60 1009.3
20260510190906 18 0.0 0.0 0.00 0.00 0.00 59 1009.3
20260510185910 19 0.0 0.0 0.00 0.00 0.00 60 1009.4
20260510183904 19 0.0 0.0 0.00 0.00 0.00 59 1009.3
20260510182909 19 0.0 0.0 0.00 0.00 0.00 59 1009.3
20260510180905 20 0.0 0.0 0.00 0.00 0.00 57 1009.3
20260510175909 20 0.0 0.0 0.00 0.00 0.00 57 1009.4
20260510173905 20 0.0 0.0 0.00 0.00 0.00 55 1009.5
20260510172905 20 0.0 0.0 0.00 0.00 0.00 55 1009.6
20260510171905 21 0.0 0.0 0.00 0.00 0.00 54 1009.5
20260510170906 21 0.0 0.0 0.00 0.00 0.00 54 1009.7
20260510165906 21 0.0 0.0 0.00 0.00 0.00 53 1009.7
20260510164906 21 0.0 0.0 0.00 0.00 0.00 52 1009.7
20260510163905 22 0.0 0.0 0.00 0.00 0.00 50 1009.6
20260510162905 22 0.0 0.0 0.00 0.00 0.00 48 1009.8
20260510161904 23 0.0 0.0 0.00 0.00 0.00 47 1009.6
20260510160904 23 0.0 0.0 0.00 0.00 0.00 46 1009.9
20260510155905 23 0.0 0.0 0.00 0.00 0.00 45 1010.0
20260510154904 23 0.0 0.0 0.00 0.00 0.00 43 1010.0
20260510153905 24 0.0 0.0 0.00 0.00 0.00 43 1010.3
20260510152904 24 0.0 0.0 0.00 0.00 0.00 43 1010.4
20260510151910 24 0.0 0.0 0.00 0.00 0.00 42 1010.5
20260510145910 25 0.0 0.0 0.00 0.00 0.00 40 1010.5
20260510143906 26 0.0 0.0 0.00 0.00 0.00 38 1010.8
20260510142905 25 0.0 0.0 0.00 0.00 0.00 40 1010.9
20260510141904 25 0.0 0.0 0.00 0.00 0.00 40 1011.1
20260510140905 25 0.0 0.0 0.00 0.00 0.00 41 1011.2
20260510135905 25 0.0 0.0 0.00 0.00 0.00 41 1011.4
20260510134904 25 0.0 0.0 0.00 0.00 0.00 41 1011.4
20260510133905 25 0.0 0.0 0.00 0.00 0.00 40 1011.5
20260510132905 25 0.0 0.0 0.00 0.00 0.00 40 1011.7
20260510131905 25 0.0 0.0 0.00 0.00 0.00 42 1011.8
20260510130904 24 0.0 0.0 0.00 0.00 0.00 42 1011.9
20260510125909 25 0.0 0.0 0.00 0.00 0.00 43 1012.0
20260510123909 25 0.0 0.0 0.00 0.00 0.00 41 1012.3
20260510121909 24 0.0 0.0 0.00 0.00 0.00 42 1012.6
20260510115906 24 0.0 0.0 0.00 0.00 0.00 41 1012.7
20260510114904 25 0.0 0.0 0.00 0.00 0.00 41 1012.8
20260510113905 25 0.0 0.0 0.00 0.00 0.00 41 1013.0
20260510112906 25 0.0 0.0 0.00 0.00 0.00 42 1013.1
20260510111910 25 0.0 0.0 0.00 0.00 0.00 42 1013.2
20260510105910 24 0.0 0.0 0.00 0.00 0.00 45 1013.5
20260510103904 23 0.0 0.0 0.00 0.00 0.00 49 1013.7
20260510102905 22 0.0 0.0 0.00 0.00 0.00 51 1014.0
20260510101905 22 0.0 0.0 0.00 0.00 0.00 55 1014.2
20260510100907 21 0.0 0.0 0.00 0.00 0.00 56 1014.3
20260510095907 20 0.0 0.0 0.00 0.00 0.00 58 1014.4
20260510094905 20 0.0 0.0 0.00 0.00 0.00 61 1014.6
20260510093909 19 0.0 0.0 0.00 0.00 0.00 64 1014.8
20260510091904 18 0.0 0.0 0.00 0.00 0.00 66 1015.0
20260510090907 17 0.0 0.0 0.00 0.00 0.00 66 1015.2
20260510085907 17 0.0 0.0 0.00 0.00 0.00 67 1015.3
20260510084904 17 0.0 0.0 0.00 0.00 0.00 68 1015.5
20260510083906 17 0.0 0.0 0.00 0.00 0.00 69 1015.5
20260510082905 16 0.0 0.0 0.00 0.00 0.00 69 1015.8
20260510081905 16 0.0 0.0 0.00 0.00 0.00 69 1015.9
20260510080905 16 0.0 0.0 0.00 0.00 0.00 70 1015.9
20260510075905 16 0.0 0.0 0.00 0.00 0.00 69 1015.9
20260510074909 15 0.0 0.0 0.00 0.00 0.00 71 1016.1
20260510070905 14 0.0 0.0 0.00 0.00 0.00 72 1016.6
20260510065904 14 0.0 0.0 0.00 0.00 0.00 72 1016.6
20260510064904 14 0.0 0.0 0.00 0.00 0.00 72 1016.5
20260510063908 13 0.0 0.0 0.00 0.00 0.00 73 1016.6
20260510061906 13 0.0 0.0 0.00 0.00 0.00 74 1016.5
20260510060907 13 0.0 0.0 0.00 0.00 0.00 74 1016.7
20260510055906 13 0.0 0.0 0.00 0.00 0.00 73 1016.8
20260510054906 13 0.0 0.0 0.00 0.00 0.00 74 1016.7
20260510053905 13 0.0 0.0 0.00 0.00 0.00 74 1016.8
20260510052904 13 0.0 0.0 0.00 0.00 0.00 74 1016.8
20260510051904 13 0.0 0.0 0.00 0.00 0.00 74 1016.8
20260510050904 13 0.0 0.0 0.00 0.00 0.00 74 1016.9
20260510045905 13 0.0 0.0 0.00 0.00 0.00 73 1016.9
20260510044904 13 0.0 0.0 0.00 0.00 0.00 73 1017.0
20260510043904 13 0.0 0.0 0.00 0.00 0.00 73 1017.1
20260510042904 13 0.0 0.0 0.00 0.00 0.00 73 1017.2
20260510041904 12 0.0 0.0 0.00 0.00 0.00 73 1017.1
20260510040906 12 0.0 0.0 0.00 0.00 0.00 73 1017.1
20260510035907 12 0.0 0.0 0.00 0.00 0.00 72 1017.2
20260510034904 12 0.0 0.0 0.00 0.00 0.00 72 1017.2
20260510033909 12 0.0 0.0 0.00 0.00 0.00 72 1017.3
20260510031904 13 0.0 0.0 0.00 0.00 0.00 72 1017.6
20260510030905 13 0.0 0.0 0.00 0.00 0.00 72 1017.7
20260510025904 13 0.0 0.0 0.00 0.00 0.00 71 1017.7
20260510024904 13 0.0 0.0 0.00 0.00 0.00 71 1017.7
20260510023909 13 0.0 0.0 0.00 0.00 0.00 71 1017.8
20260510021904 13 0.0 0.0 0.00 0.00 0.00 72 1017.7
20260510020904 13 0.0 0.0 0.00 0.00 0.00 71 1017.8
20260510015905 13 0.0 0.0 0.00 0.00 0.00 71 1017.8
20260510014904 13 0.0 0.0 0.00 0.00 0.00 71 1017.8
20260510013904 13 0.0 0.0 0.00 0.00 0.00 72 1017.8
20260510012905 13 0.0 0.0 0.00 0.00 0.00 70 1017.8
20260510011904 13 0.0 0.0 0.00 0.00 0.00 70 1017.8
20260510010906 14 0.0 0.0 0.00 0.00 0.00 70 1017.9
20260510005906 14 0.0 0.0 0.00 0.00 0.00 70 1017.9
20260510004905 14 0.0 0.0 0.00 0.00 0.00 69 1018.0
20260510003905 14 0.0 0.0 0.00 0.00 0.00 69 1018.0
20260510002909 14 0.0 0.0 0.00 0.00 0.00 69 1018.1
20260510000906 14 0.0 0.0 0.00 0.00 0.00 68 1018.4
20260509235908 15 0.0 0.0 0.00 0.00 0.00 69 1018.5
20260509234910 15 0.0 0.0 0.00 0.00 0.00 68 1018.5
20260509231905 15 0.0 0.0 0.00 0.00 0.00 67 1018.8
20260509230905 15 0.0 0.0 0.00 0.00 0.00 67 1018.8
20260509225906 15 0.0 0.0 0.00 0.00 0.00 66 1018.9
20260509224905 15 0.0 0.0 0.00 0.00 0.00 66 1018.9
20260509223905 15 0.0 0.0 0.00 0.00 0.00 66 1018.9
20260509222907 15 0.0 0.0 0.00 0.00 0.00 65 1019.0
20260509221906 15 0.0 0.0 0.00 0.00 0.00 65 1019.3
20260509220909 15 0.0 0.0 0.00 0.00 0.00 65 1019.3
20260509214909 16 0.0 0.0 0.00 0.00 0.00 63 1019.2
20260509212905 16 0.0 0.0 0.00 0.00 0.00 61 1019.2
20260509211904 16 0.0 0.0 0.00 0.00 0.00 61 1019.3
20260509210905 16 0.0 0.0 0.00 0.00 0.00 61 1019.2
20260509205905 16 0.0 0.0 0.00 0.00 0.00 60 1019.1
20260509204909 16 0.0 0.0 0.00 0.00 0.00 59 1019.0
20260509202904 17 0.0 0.0 0.00 0.00 0.00 59 1019.0
20260509201905 17 0.0 0.0 0.00 0.00 0.00 57 1018.8
20260509200905 17 0.0 0.0 0.00 0.00 0.00 57 1019.0
20260509195906 17 0.0 0.0 0.00 0.00 0.00 56 1019.1
20260509194907 18 0.0 0.0 0.00 0.00 0.00 56 1018.6
20260509193904 18 0.0 0.0 0.00 0.00 0.00 55 1018.8
20260509192904 18 0.0 0.0 0.00 0.00 0.00 54 1018.6